This is the latest recevied weather packets stored in our database for station/object KC5TIL-3. If no packets are shown the sender has not sent any weather packets the latest 10 day(s).
| Time | Temp. | Humidity | Pressure | Rain* | Wind** | Luminosity | Snow |
|---|---|---|---|---|---|---|---|
| 1787754881 | 30.56° C | 19% | 1012.8 hPa | 0 mm | 0 m/s | - | - |
| 1787754583 | 30.56° C | 19% | 1012.8 hPa | 0 mm | 1.34 m/s, 304° | - | - |
| 1787754281 | 30.56° C | 19% | 1012.8 hPa | 0 mm | 2.24 m/s, 281° | - | - |
| 1787753983 | 30.56° C | 19% | 1012.8 hPa | 0 mm | 0 m/s | - | - |
| 1787753685 | 30° C | 19% | 1012.8 hPa | 0 mm | 1.34 m/s, 292° | - | - |
| 1787753384 | 30° C | 19% | 1012.8 hPa | 0 mm | 1.34 m/s, 338° | - | - |
| 1787753085 | 30° C | 19% | 1012.8 hPa | 0 mm | 1.34 m/s, 297° | - | - |
| 1787752787 | 29.44° C | 19% | 1012.8 hPa | 0 mm | 1.34 m/s, 267° | - | - |
| 1787752486 | 29.44° C | 20% | 1012.8 hPa | 0 mm | 1.34 m/s, 118° | - | - |
| 1787752188 | 28.89° C | 21% | 1012.8 hPa | 0 mm | 1.34 m/s, 239° | - | - |
| 1787751890 | 28.89° C | 21% | 1012.8 hPa | 0 mm | 1.34 m/s, 246° | - | - |
| 1787751588 | 28.89° C | 21% | 1012.8 hPa | 0 mm | 1.34 m/s, 280° | - | - |
| 1787751286 | 28.33° C | 21% | 1012.8 hPa | 0 mm | 1.34 m/s, 261° | - | - |
| 1787750987 | 28.89° C | 21% | 1012.8 hPa | 0 mm | 1.79 m/s, 258° | - | - |
| 1787750686 | 28.89° C | 22% | 1012.8 hPa | 0 mm | 1.34 m/s, 290° | - | - |
| 1787750388 | 28.89° C | 22% | 1012.8 hPa | 0 mm | 1.34 m/s, 257° | - | - |
| 1787750090 | 28.89° C | 22% | 1012.8 hPa | 0 mm | 1.34 m/s, 290° | - | - |
| 1787749788 | 28.33° C | 22% | 1012.8 hPa | 0 mm | 1.34 m/s, 300° | - | - |
| 1787749490 | 28.33° C | 22% | 1012.8 hPa | 0 mm | 1.79 m/s, 216° | - | - |
| 1787749192 | 28.33° C | 23% | 1012.8 hPa | 0 mm | 2.24 m/s, 197° | - | - |
| 1787748891 | 28.33° C | 22% | 1012.8 hPa | 0 mm | 1.34 m/s, 260° | - | - |
| 1787748592 | 28.33° C | 22% | 1012.8 hPa | 0 mm | 0 m/s | - | - |
| 1787748294 | 28.33° C | 22% | 1011.8 hPa | 0 mm | 2.24 m/s, 223° | - | - |
| 1787747993 | 28.33° C | 22% | 1011.8 hPa | 0 mm | 2.68 m/s, 221° | - | - |
| 1787747695 | 28.33° C | 22% | 1011.8 hPa | 0 mm | 1.79 m/s, 253° | - | - |
* Rain latest hour (hover to see other rain measurements)
** Current wind speed in m/s (hover to see current wind gust speed)